| time (UTC) | temp F | wind direction | speed knots | gust knots | rain 1hr in | rain 24hr in | rain mn in | humidity % | barometer mb |
| 20260505051731 | 69 | 219 | 0.9 | 2.6 | 0.00 | 0.25 | 0.00 | 69 | 1002.8 |
| 20260505051230 | 70 | 224 | 1.7 | 2.6 | 0.00 | 0.25 | 0.00 | 69 | 1002.9 |
| 20260505050731 | 69 | 225 | 1.7 | 2.6 | 0.00 | 0.25 | 0.00 | 69 | 1002.6 |
| 20260505050226 | 69 | 219 | 1.7 | 2.6 | 0.00 | 0.25 | 0.00 | 69 | 1002.5 |
| 20260505041722 | 70 | 217 | 1.7 | 5.2 | 0.00 | 0.26 | 0.25 | 68 | 1001.8 |
| 20260505041220 | 70 | 229 | 1.7 | 4.3 | 0.00 | 0.29 | 0.25 | 69 | 1001.9 |
| 20260505040720 | 70 | 194 | 1.7 | 4.3 | 0.00 | 0.30 | 0.25 | 69 | 1002.0 |
| 20260505040219 | 70 | 229 | 0.9 | 3.5 | 0.00 | 0.30 | 0.25 | 69 | 1002.2 |
| 20260505035723 | 69 | 224 | 0.9 | 3.5 | 0.00 | 0.30 | 0.25 | 70 | 1002.3 |
| 20260505035718 | 69 | 225 | 0.9 | 3.5 | 0.00 | 0.30 | 0.25 | 69 | 1002.2 |
| 20260505034718 | 69 | 92 | 0.9 | 3.5 | 0.00 | 0.30 | 0.25 | 70 | 1002.2 |
| 20260505034713 | 69 | 224 | 0.9 | 3.5 | 0.00 | 0.30 | 0.25 | 70 | 1002.4 |
| 20260505034329 | 69 | 222 | 0.9 | 2.6 | 0.00 | 0.30 | 0.25 | 70 | 1002.6 |
| 20260505033213 | 70 | 239 | 0.9 | 2.6 | 0.00 | 0.30 | 0.25 | 69 | 1002.5 |
| 20260505032709 | 70 | 251 | 0.9 | 2.6 | 0.00 | 0.30 | 0.25 | 69 | 1002.5 |
| 20260505032209 | 70 | 99 | 0.9 | 2.6 | 0.00 | 0.30 | 0.25 | 69 | 1002.5 |
| 20260505031709 | 70 | 212 | 0.9 | 1.7 | 0.00 | 0.30 | 0.25 | 69 | 1002.5 |
| 20260505031205 | 70 | 250 | 0.9 | 1.7 | 0.00 | 0.30 | 0.25 | 69 | 1002.5 |
| 20260505030706 | 71 | 230 | 0.9 | 3.5 | 0.00 | 0.30 | 0.25 | 68 | 1002.5 |
| 20260505030205 | 71 | 229 | 0.9 | 3.5 | 0.00 | 0.30 | 0.25 | 68 | 1002.4 |
| 20260505025706 | 71 | 39 | 0.9 | 1.7 | 0.00 | 0.30 | 0.25 | 69 | 1002.4 |
| 20260505025204 | 71 | 222 | 0.9 | 1.7 | 0.00 | 0.30 | 0.25 | 69 | 1002.4 |
| 20260505024702 | 70 | 246 | 0.9 | 1.7 | 0.00 | 0.30 | 0.25 | 69 | 1002.3 |
| 20260505024200 | 71 | 217 | 0.9 | 1.7 | 0.00 | 0.30 | 0.25 | 69 | 1002.2 |
| 20260505023705 | 71 | 228 | 0.9 | 3.5 | 0.00 | 0.30 | 0.25 | 67 | 1001.8 |
| 20260505023700 | 71 | 233 | 0.9 | 1.7 | 0.00 | 0.30 | 0.25 | 69 | 1002.1 |
| 20260505023158 | 71 | 243 | 0.9 | 1.7 | 0.00 | 0.30 | 0.25 | 68 | 1002.0 |
| 20260505022151 | 71 | 99 | 0.9 | 3.5 | 0.00 | 0.30 | 0.25 | 66 | 1001.7 |
| 20260505021651 | 71 | 231 | 0.9 | 1.7 | 0.00 | 0.30 | 0.25 | 67 | 1001.6 |
| 20260505021153 | 72 | 231 | 0.9 | 1.7 | 0.00 | 0.30 | 0.25 | 66 | 1001.5 |
| 20260505020652 | 72 | 215 | 0.9 | 1.7 | 0.00 | 0.30 | 0.25 | 65 | 1001.4 |
| 20260505020150 | 72 | 233 | 0.9 | 2.6 | 0.00 | 0.30 | 0.25 | 65 | 1001.4 |
| 20260505015653 | 73 | 232 | 0.9 | 1.7 | 0.00 | 0.30 | 0.25 | 64 | 1001.3 |
| 20260505015649 | 73 | 222 | 0.9 | 2.6 | 0.00 | 0.30 | 0.25 | 64 | 1001.3 |
| 20260505015306 | 74 | 91 | 1.7 | 2.6 | 0.00 | 0.30 | 0.25 | 62 | 1001.2 |
| 20260505014805 | 74 | 224 | 1.7 | 2.6 | 0.00 | 0.30 | 0.25 | 61 | 1001.2 |
| 20260505013650 | 74 | 173 | 1.7 | 6.1 | 0.00 | 0.30 | 0.25 | 61 | 1001.0 |
| 20260505013645 | 74 | 226 | 1.7 | 6.1 | 0.00 | 0.30 | 0.25 | 61 | 1001.1 |
| 20260505012645 | 74 | 226 | 1.7 | 2.6 | 0.00 | 0.30 | 0.25 | 62 | 1000.9 |
| 20260505012141 | 74 | 214 | 1.7 | 2.6 | 0.00 | 0.30 | 0.25 | 62 | 1001.0 |
| 20260505011640 | 74 | 219 | 1.7 | 4.3 | 0.00 | 0.30 | 0.25 | 63 | 1001.0 |
| 20260505011140 | 74 | 222 | 1.7 | 4.3 | 0.00 | 0.30 | 0.25 | 62 | 1001.0 |
| 20260505010639 | 74 | 232 | 1.7 | 3.5 | 0.00 | 0.30 | 0.25 | 62 | 1000.9 |
| 20260505010140 | 74 | 224 | 1.7 | 3.5 | 0.00 | 0.30 | 0.25 | 62 | 1000.8 |
| 20260505005645 | 74 | 224 | 1.7 | 3.5 | 0.00 | 0.30 | 0.25 | 63 | 1000.7 |
| 20260505005640 | 74 | 224 | 1.7 | 3.5 | 0.00 | 0.30 | 0.25 | 63 | 1000.8 |
| 20260505005257 | 74 | 336 | 1.7 | 4.3 | 0.00 | 0.30 | 0.25 | 64 | 1000.6 |
| 20260505004137 | 74 | 236 | 1.7 | 4.3 | 0.00 | 0.30 | 0.25 | 63 | 1000.5 |
| 20260505003636 | 73 | 203 | 1.7 | 4.3 | 0.00 | 0.30 | 0.25 | 65 | 1000.5 |
| 20260505003137 | 73 | 222 | 1.7 | 3.5 | 0.00 | 0.30 | 0.25 | 67 | 1000.5 |
| 20260505002637 | 71 | 245 | 0.0 | 1.7 | 0.00 | 0.30 | 0.25 | 75 | 1000.6 |
| 20260505002632 | 71 | 232 | 0.9 | 2.6 | 0.00 | 0.30 | 0.25 | 71 | 1000.5 |
| 20260505002251 | 71 | 169 | 0.0 | 1.7 | 0.00 | 0.30 | 0.25 | 75 | 1000.6 |
| 20260505001130 | 71 | 105 | 0.0 | 0.9 | 0.00 | 0.30 | 0.25 | 77 | 1000.6 |
| 20260505000629 | 71 | 102 | 0.0 | 0.9 | 0.00 | 0.30 | 0.25 | 77 | 1000.6 |
| 20260505000127 | 71 | 99 | 0.0 | 2.6 | 0.00 | 0.30 | 0.25 | 77 | 1000.6 |
| 20260504235624 | 71 | 99 | 0.0 | 2.6 | 0.00 | 0.30 | 0.25 | 77 | 1000.7 |
| 20260504235123 | 71 | 240 | 0.0 | 0.0 | 0.00 | 0.30 | 0.25 | 77 | 1000.6 |
| 20260504234621 | 71 | 240 | 0.0 | 0.0 | 0.00 | 0.30 | 0.25 | 77 | 1000.7 |
| 20260504234126 | 71 | 240 | 0.0 | 0.9 | 0.00 | 0.30 | 0.25 | 76 | 1000.6 |
| 20260504234121 | 71 | 240 | 0.0 | 0.0 | 0.00 | 0.30 | 0.25 | 77 | 1000.6 |
| 20260504233120 | 72 | 240 | 0.0 | 1.7 | 0.00 | 0.30 | 0.25 | 76 | 1000.7 |
| 20260504232621 | 72 | 240 | 0.9 | 4.3 | 0.00 | 0.30 | 0.25 | 73 | 1000.7 |
| 20260504232120 | 72 | 236 | 0.9 | 4.3 | 0.00 | 0.30 | 0.25 | 72 | 1000.3 |
| 20260504231621 | 72 | 219 | 0.0 | 3.5 | 0.00 | 0.30 | 0.25 | 70 | 1000.1 |
| 20260504231117 | 73 | 259 | 0.0 | 0.9 | 0.00 | 0.30 | 0.25 | 71 | 1000.4 |
| 20260504230619 | 73 | 259 | 0.0 | 1.7 | 0.00 | 0.30 | 0.25 | 70 | 1000.8 |
| 20260504230118 | 74 | 300 | 0.9 | 1.7 | 0.00 | 0.30 | 0.25 | 68 | 1000.8 |
| 20260504225618 | 74 | 222 | 0.9 | 3.5 | 0.00 | 0.30 | 0.25 | 67 | 1001.0 |
| 20260504225119 | 74 | 212 | 0.9 | 4.3 | 0.00 | 0.30 | 0.25 | 65 | 1001.2 |
| 20260504224619 | 75 | 195 | 0.9 | 4.3 | 0.00 | 0.30 | 0.25 | 65 | 1001.4 |
| 20260504224118 | 75 | 210 | 0.9 | 3.5 | 0.00 | 0.30 | 0.25 | 64 | 1001.5 |
| 20260504223618 | 75 | 230 | 0.9 | 5.2 | 0.00 | 0.30 | 0.25 | 65 | 1001.6 |
| 20260504223119 | 75 | 225 | 0.9 | 5.2 | 0.00 | 0.30 | 0.25 | 67 | 1001.7 |
| 20260504222619 | 75 | 229 | 1.7 | 6.1 | 0.00 | 0.30 | 0.25 | 63 | 1001.8 |
| 20260504222123 | 76 | 232 | 0.9 | 4.3 | 0.00 | 0.30 | 0.25 | 62 | 1001.8 |
| 20260504222118 | 75 | 232 | 1.7 | 6.1 | 0.00 | 0.30 | 0.25 | 62 | 1001.8 |
| 20260504221119 | 76 | 73 | 1.7 | 4.3 | 0.00 | 0.30 | 0.25 | 61 | 1001.7 |
| 20260504220617 | 76 | 225 | 1.7 | 4.3 | 0.00 | 0.30 | 0.25 | 62 | 1001.8 |
| 20260504220116 | 77 | 117 | 1.7 | 3.5 | 0.00 | 0.30 | 0.25 | 62 | 1001.7 |
| 20260504215616 | 77 | 239 | 1.7 | 4.3 | 0.00 | 0.30 | 0.25 | 62 | 1001.8 |
| 20260504215115 | 76 | 229 | 1.7 | 4.3 | 0.00 | 0.30 | 0.25 | 62 | 1001.7 |
| 20260504214615 | 76 | 225 | 1.7 | 5.2 | 0.00 | 0.30 | 0.25 | 61 | 1001.7 |
| 20260504214116 | 76 | 157 | 2.6 | 9.6 | 0.00 | 0.30 | 0.25 | 60 | 1001.6 |
| 20260504213615 | 77 | 243 | 2.6 | 9.6 | 0.00 | 0.30 | 0.25 | 59 | 1001.6 |
| 20260504213117 | 77 | 232 | 2.6 | 7.0 | 0.00 | 0.30 | 0.25 | 62 | 1001.7 |
| 20260504212615 | 77 | 230 | 2.6 | 6.1 | 0.00 | 0.30 | 0.25 | 61 | 1001.8 |
| 20260504212121 | 77 | 211 | 2.6 | 12.2 | 0.00 | 0.30 | 0.25 | 59 | 1002.0 |
| 20260504212115 | 77 | 240 | 2.6 | 12.2 | 0.00 | 0.30 | 0.25 | 60 | 1001.9 |
| 20260504211735 | 77 | 205 | 2.6 | 5.2 | 0.00 | 0.30 | 0.25 | 61 | 1002.0 |
| 20260504210616 | 77 | 253 | 2.6 | 6.1 | 0.00 | 0.30 | 0.25 | 62 | 1002.1 |
| 20260504210116 | 76 | 266 | 2.6 | 6.1 | 0.00 | 0.30 | 0.25 | 62 | 1002.1 |
| 20260504205622 | 76 | 226 | 1.7 | 5.2 | 0.00 | 0.30 | 0.25 | 63 | 1002.2 |
| 20260504205617 | 76 | 225 | 1.7 | 6.1 | 0.00 | 0.30 | 0.25 | 62 | 1002.1 |
| 20260504205234 | 76 | 232 | 2.6 | 5.2 | 0.00 | 0.30 | 0.25 | 65 | 1002.4 |
| 20260504204121 | 74 | 225 | 1.7 | 6.1 | 0.00 | 0.30 | 0.25 | 69 | 1002.4 |
| 20260504204116 | 75 | 224 | 1.7 | 6.1 | 0.00 | 0.30 | 0.25 | 65 | 1002.4 |
| 20260504203116 | 74 | 235 | 2.6 | 7.0 | 0.00 | 0.30 | 0.25 | 68 | 1002.5 |
| 20260504202616 | 74 | 230 | 2.6 | 7.0 | 0.00 | 0.30 | 0.25 | 69 | 1002.5 |
| 20260504202115 | 74 | 326 | 2.6 | 6.1 | 0.00 | 0.30 | 0.25 | 70 | 1002.4 |
| 20260504201616 | 74 | 128 | 1.7 | 6.1 | 0.00 | 0.30 | 0.25 | 68 | 1002.6 |
| 20260504201117 | 74 | 236 | 1.7 | 6.1 | 0.00 | 0.30 | 0.25 | 68 | 1002.7 |
| 20260504200615 | 74 | 200 | 1.7 | 2.6 | 0.00 | 0.30 | 0.25 | 71 | 1002.9 |
| 20260504200116 | 74 | 219 | 1.7 | 4.3 | 0.00 | 0.30 | 0.25 | 71 | 1002.9 |
| 20260504195621 | 73 | 240 | 2.6 | 7.8 | 0.00 | 0.30 | 0.25 | 71 | 1002.9 |
| 20260504195616 | 73 | 217 | 1.7 | 4.3 | 0.00 | 0.30 | 0.25 | 73 | 1002.9 |
| 20260504194617 | 72 | 215 | 2.6 | 7.8 | 0.00 | 0.30 | 0.25 | 72 | 1002.8 |
| 20260504194116 | 71 | 239 | 2.6 | 7.8 | 0.00 | 0.30 | 0.25 | 74 | 1002.6 |
| 20260504193621 | 66 | 239 | 1.7 | 6.1 | 0.00 | 0.30 | 0.25 | 81 | 1001.9 |
| 20260504193616 | 69 | 259 | 1.7 | 7.8 | 0.00 | 0.30 | 0.25 | 79 | 1002.4 |
| 20260504192615 | 65 | 237 | 1.7 | 5.2 | 0.00 | 0.30 | 0.25 | 84 | 1001.5 |
| 20260504192116 | 65 | 309 | 1.7 | 5.2 | 0.00 | 0.30 | 0.25 | 84 | 1001.5 |
| 20260504191621 | 65 | 219 | 1.7 | 7.8 | 0.00 | 0.30 | 0.25 | 83 | 1002.5 |
| 20260504191616 | 65 | 253 | 1.7 | 7.8 | 0.00 | 0.30 | 0.25 | 84 | 1001.7 |
| 20260504190617 | 65 | 138 | 0.9 | 5.2 | 0.00 | 0.30 | 0.25 | 84 | 1003.4 |
| 20260504190115 | 66 | 278 | 0.9 | 3.5 | 0.00 | 0.30 | 0.25 | 83 | 1003.5 |
| 20260504185616 | 66 | 22 | 0.9 | 2.6 | 0.01 | 0.30 | 0.25 | 84 | 1003.5 |
| 20260504185115 | 65 | 238 | 0.9 | 3.5 | 0.01 | 0.30 | 0.25 | 86 | 1003.8 |
| 20260504184616 | 65 | 84 | 0.9 | 4.3 | 0.07 | 0.30 | 0.25 | 89 | 1003.9 |
| 20260504184115 | 64 | 233 | 0.9 | 4.3 | 0.12 | 0.30 | 0.25 | 91 | 1003.9 |
| 20260504183616 | 63 | 88 | 0.0 | 2.6 | 0.19 | 0.30 | 0.25 | 92 | 1003.9 |
| 20260504183115 | 62 | 314 | 0.0 | 1.7 | 0.22 | 0.30 | 0.25 | 92 | 1003.9 |
| 20260504182616 | 62 | 47 | 0.0 | 1.7 | 0.22 | 0.30 | 0.25 | 92 | 1003.9 |
| 20260504182120 | 61 | 102 | 0.0 | 3.5 | 0.23 | 0.30 | 0.25 | 92 | 1004.1 |
| 20260504182116 | 61 | 273 | 0.0 | 1.7 | 0.22 | 0.30 | 0.25 | 92 | 1003.9 |
| 20260504181116 | 61 | 338 | 0.9 | 5.2 | 0.23 | 0.30 | 0.25 | 91 | 1004.4 |
| 20260504180616 | 61 | 135 | 0.9 | 6.1 | 0.24 | 0.30 | 0.25 | 91 | 1004.4 |
| 20260504180116 | 61 | 62 | 0.9 | 6.1 | 0.24 | 0.30 | 0.25 | 90 | 1004.4 |
| 20260504175735 | 62 | 241 | 1.7 | 5.2 | 0.17 | 0.23 | 0.18 | 87 | 1004.3 |
| 20260504175621 | 62 | 86 | 1.7 | 3.5 | 0.23 | 0.29 | 0.24 | 89 | 1004.3 |
| 20260504175616 | 61 | 233 | 1.7 | 4.3 | 0.23 | 0.29 | 0.24 | 89 | 1004.3 |
| 20260504174117 | 63 | 215 | 1.7 | 5.2 | 0.12 | 0.18 | 0.16 | 86 | 1004.3 |
| 20260504173617 | 63 | 165 | 0.9 | 2.6 | 0.05 | 0.11 | 0.07 | 86 | 1004.7 |
| 20260504173115 | 64 | 222 | 0.9 | 2.6 | 0.02 | 0.08 | 0.03 | 84 | 1004.9 |
| 20260504172621 | 64 | 274 | 0.0 | 1.7 | 0.02 | 0.08 | 0.03 | 83 | 1004.2 |
| 20260504172616 | 64 | 225 | 0.9 | 1.7 | 0.02 | 0.08 | 0.03 | 83 | 1004.4 |
| 20260504172234 | 64 | 266 | 0.0 | 0.9 | 0.01 | 0.07 | 0.02 | 82 | 1004.2 |
| 20260504171115 | 65 | 219 | 0.0 | 0.9 | 0.01 | 0.07 | 0.02 | 82 | 1004.6 |
| 20260504170621 | 65 | 222 | 0.0 | 0.9 | 0.00 | 0.06 | 0.01 | 79 | 1004.9 |
| 20260504170616 | 65 | 222 | 0.0 | 0.9 | 0.00 | 0.06 | 0.01 | 82 | 1004.9 |
| 20260504160121 | 67 | 245 | 1.7 | 3.5 | 0.00 | 0.06 | 0.01 | 66 | 1005.1 |
| 20260504160115 | 67 | 214 | 1.7 | 8.7 | 0.00 | 0.06 | 0.01 | 70 | 1005.3 |
| 20260504151116 | 68 | 238 | 1.7 | 2.6 | 0.00 | 0.06 | 0.01 | 65 | 1005.9 |
| 20260504150617 | 68 | 205 | 1.7 | 2.6 | 0.00 | 0.06 | 0.01 | 64 | 1005.8 |
| 20260504150116 | 68 | 222 | 1.7 | 2.6 | 0.00 | 0.06 | 0.01 | 65 | 1005.8 |
| 20260504141121 | 70 | 231 | 0.9 | 2.6 | 0.00 | 0.06 | 0.01 | 68 | 1005.9 |
| 20260504141115 | 71 | 217 | 0.9 | 5.2 | 0.00 | 0.06 | 0.01 | 68 | 1005.9 |
| 20260504140115 | 70 | 241 | 1.7 | 4.3 | 0.00 | 0.06 | 0.01 | 69 | 1006.0 |
| 20260504130619 | 63 | 235 | 0.9 | 3.5 | 0.00 | 0.06 | 0.01 | 80 | 1006.6 |
| 20260504130614 | 63 | 311 | 0.9 | 3.5 | 0.00 | 0.06 | 0.01 | 83 | 1006.8 |
| 20260504120114 | 60 | 236 | 0.9 | 1.7 | 0.00 | 0.06 | 0.01 | 84 | 1006.8 |
| 20260504110613 | 56 | 248 | 0.0 | 0.9 | 0.00 | 0.06 | 0.01 | 91 | 1006.9 |
| 20260504110119 | 56 | 248 | 0.0 | 0.0 | 0.00 | 0.06 | 0.01 | 93 | 1007.0 |
| 20260504110114 | 56 | 248 | 0.0 | 0.0 | 0.00 | 0.06 | 0.01 | 93 | 1007.0 |
| 20260504100614 | 56 | 248 | 0.0 | 0.0 | 0.00 | 0.06 | 0.01 | 91 | 1007.1 |
| 20260504100114 | 56 | 248 | 0.0 | 0.0 | 0.00 | 0.06 | 0.01 | 91 | 1007.1 |
| 20260504090115 | 57 | 338 | 0.0 | 0.9 | 0.00 | 0.06 | 0.01 | 90 | 1007.0 |
| 20260504081615 | 58 | 33 | 0.0 | 0.0 | 0.00 | 0.06 | 0.01 | 92 | 1007.0 |
| 20260504081114 | 58 | 33 | 0.0 | 0.0 | 0.00 | 0.06 | 0.01 | 91 | 1007.1 |
| 20260504080614 | 58 | 33 | 0.0 | 0.0 | 0.00 | 0.06 | 0.01 | 91 | 1007.2 |
| 20260504080114 | 58 | 33 | 0.0 | 0.0 | 0.00 | 0.06 | 0.01 | 91 | 1007.2 |
| 20260504070230 | 58 | 122 | 0.0 | 0.9 | 0.01 | 0.06 | 0.01 | 93 | 1007.6 |
| 20260504060114 | 58 | 53 | 0.0 | 1.7 | 0.00 | 0.05 | 0.00 | 94 | 1008.5 |